| time (UTC) | temp F | wind direction | speed MPH | gust MPH | rain 1hr in | rain 24hr in | rain mn in | humidity % | barometer mb |
| 20260506004505 | 59 | 176 | 0.0 | 0.0 | 0.02 | 0.34 | 0.03 | 97 | 1006.0 |
| 20260506003005 | 59 | 178 | 0.0 | 0.0 | 0.03 | 0.34 | 0.03 | 97 | 1006.1 |
| 20260506001503 | 59 | 158 | 0.0 | 0.0 | 0.02 | 0.33 | 0.02 | 97 | 1005.9 |
| 20260506000002 | 59 | 141 | 0.0 | 0.0 | 0.02 | 0.33 | 0.02 | 97 | 1005.7 |
| 20260505234609 | 59 | 162 | 0.0 | 0.0 | 0.01 | 0.32 | 0.01 | 97 | 1005.9 |
| 20260505233057 | 59 | 184 | 0.0 | 0.0 | 0.00 | 0.31 | 0.00 | 97 | 1006.0 |
| 20260505231557 | 60 | 191 | 0.0 | 0.0 | 0.00 | 0.31 | 0.00 | 97 | 1006.1 |
| 20260505230054 | 60 | 176 | 0.0 | 0.0 | 0.00 | 0.31 | 0.00 | 97 | 1006.3 |
| 20260505224550 | 60 | 235 | 0.0 | 0.0 | 0.00 | 0.31 | 0.00 | 97 | 1006.5 |
| 20260505223047 | 60 | 193 | 0.0 | 2.0 | 0.01 | 0.31 | 0.00 | 96 | 1006.8 |
| 20260505221546 | 60 | 199 | 0.0 | 0.0 | 0.02 | 0.31 | 0.00 | 96 | 1007.0 |
| 20260505220045 | 60 | 209 | 0.0 | 0.0 | 0.04 | 0.31 | 0.00 | 96 | 1007.4 |
| 20260505214600 | 60 | 201 | 0.0 | 0.0 | 0.09 | 0.31 | 0.31 | 96 | 1007.3 |
| 20260505213036 | 60 | 243 | 0.0 | 0.0 | 0.10 | 0.30 | 0.30 | 96 | 1007.3 |
| 20260505211532 | 60 | 226 | 0.0 | 0.0 | 0.12 | 0.28 | 0.28 | 96 | 1007.5 |
| 20260505210025 | 60 | 245 | 2.0 | 7.0 | 0.13 | 0.27 | 0.27 | 96 | 1007.4 |
| 20260505204520 | 60 | 262 | 0.0 | 0.0 | 0.17 | 0.22 | 0.22 | 95 | 1007.5 |
| 20260505203022 | 60 | 264 | 0.0 | 3.0 | 0.16 | 0.20 | 0.20 | 95 | 1007.6 |
| 20260505201510 | 60 | 198 | 0.0 | 0.0 | 0.13 | 0.17 | 0.17 | 95 | 1007.7 |
| 20260505200005 | 61 | 272 | 0.0 | 7.0 | 0.10 | 0.14 | 0.14 | 93 | 1007.6 |
| 20260505194607 | 66 | 6 | 5.0 | 21.0 | 0.01 | 0.05 | 0.05 | 80 | 1007.7 |
| 20260505193053 | 68 | 258 | 4.0 | 15.0 | 0.00 | 0.04 | 0.04 | 67 | 1007.3 |
| 20260505191550 | 68 | 265 | 0.0 | 6.0 | 0.00 | 0.04 | 0.04 | 67 | 1007.4 |
| 20260505190045 | 68 | 238 | 0.0 | 9.0 | 0.00 | 0.04 | 0.04 | 67 | 1007.4 |
| 20260505184538 | 68 | 264 | 2.0 | 11.0 | 0.00 | 0.04 | 0.04 | 66 | 1007.6 |
| 20260505183036 | 68 | 267 | 0.0 | 0.0 | 0.00 | 0.04 | 0.04 | 66 | 1007.8 |
| 20260505181531 | 68 | 232 | 0.0 | 11.0 | 0.00 | 0.04 | 0.04 | 66 | 1008.1 |
| 20260505180048 | 68 | 259 | 3.0 | 11.0 | 0.00 | 0.04 | 0.04 | 65 | 1008.2 |
| 20260505174542 | 68 | 252 | 0.0 | 0.0 | 0.00 | 0.04 | 0.04 | 65 | 1008.2 |
| 20260505173020 | 67 | 234 | 0.0 | 8.0 | 0.00 | 0.04 | 0.04 | 65 | 1008.4 |
| 20260505171516 | 67 | 261 | 0.0 | 11.0 | 0.00 | 0.04 | 0.04 | 65 | 1008.4 |
| 20260505170005 | 67 | 246 | 0.0 | 10.0 | 0.00 | 0.04 | 0.04 | 65 | 1008.4 |
| 20260505164501 | 66 | 224 | 0.0 | 0.0 | 0.00 | 0.04 | 0.04 | 65 | 1008.4 |
| 20260505163055 | 67 | 232 | 0.0 | 8.0 | 0.00 | 0.04 | 0.04 | 66 | 1008.5 |
| 20260505161558 | 67 | 207 | 0.0 | 3.0 | 0.00 | 0.04 | 0.04 | 65 | 1008.5 |
| 20260505153035 | 67 | 209 | 0.0 | 2.0 | 0.00 | 0.04 | 0.04 | 67 | 1008.1 |
| 20260505151532 | 66 | 234 | 1.0 | 8.0 | 0.00 | 0.04 | 0.04 | 68 | 1008.1 |
| 20260505124512 | 58 | 168 | 0.0 | 0.0 | 0.00 | 0.04 | 0.04 | 91 | 1008.0 |
| 20260505123007 | 58 | 222 | 0.0 | 0.0 | 0.00 | 0.04 | 0.04 | 93 | 1008.1 |
| 20260505121503 | 57 | 138 | 0.0 | 0.0 | 0.00 | 0.04 | 0.04 | 94 | 1008.2 |
| 20260505120056 | 57 | 257 | 0.0 | 0.0 | 0.00 | 0.04 | 0.04 | 94 | 1008.4 |
| 20260505114556 | 0 | 0.0 | 0.0 | 0.00 | 0.04 | 0.04 | 1008.3 | ||
| 20260505113110 | 0 | 0.0 | 0.0 | 0.01 | 0.04 | 0.04 | 1007.6 | ||
| 20260505111551 | 0 | 0.0 | 0.0 | 0.03 | 0.04 | 0.04 | 1007.6 | ||
| 20260505101537 | 59 | 333 | 0.0 | 10.0 | 0.01 | 0.01 | 0.01 | 84 | 1008.2 |
| 20260505100028 | 62 | 317 | 3.0 | 13.0 | 0.00 | 0.00 | 0.00 | 75 | 1008.4 |
| 20260505094525 | 63 | 297 | 0.0 | 0.0 | 0.00 | 0.00 | 0.00 | 64 | 1007.9 |
| 20260505093033 | 63 | 271 | 0.0 | 0.0 | 0.00 | 0.00 | 0.00 | 64 | 1007.5 |
| 20260505091524 | 63 | 208 | 0.0 | 0.0 | 0.00 | 0.00 | 0.00 | 64 | 1007.2 |
| 20260505090015 | 63 | 134 | 0.0 | 0.0 | 0.00 | 0.00 | 0.00 | 65 | 1006.9 |
| 20260505084514 | 62 | 172 | 0.0 | 0.0 | 0.00 | 0.00 | 0.00 | 65 | 1006.8 |
| 20260505083021 | 62 | 180 | 0.0 | 0.0 | 0.00 | 0.00 | 0.00 | 65 | 1006.7 |
| 20260505081511 | 63 | 168 | 0.0 | 0.0 | 0.00 | 0.00 | 0.00 | 65 | 1006.5 |
| 20260505080007 | 63 | 207 | 0.0 | 0.0 | 0.00 | 0.00 | 0.00 | 63 | 1006.5 |
| 20260505074506 | 63 | 239 | 0.0 | 0.0 | 0.00 | 0.00 | 0.00 | 63 | 1006.4 |
| 20260505073003 | 63 | 227 | 0.0 | 0.0 | 0.00 | 0.00 | 0.00 | 63 | 1006.1 |
| 20260505071502 | 64 | 170 | 0.0 | 0.0 | 0.00 | 0.00 | 0.00 | 63 | 1005.9 |
| 20260505070100 | 64 | 217 | 0.0 | 0.0 | 0.00 | 0.00 | 0.00 | 63 | 1006.0 |
| 20260505064559 | 64 | 145 | 0.0 | 0.0 | 0.00 | 0.00 | 0.00 | 63 | 1006.0 |
| 20260505063138 | 64 | 239 | 0.0 | 0.0 | 0.00 | 0.00 | 0.00 | 63 | 1006.1 |
| 20260505061638 | 64 | 198 | 0.0 | 0.0 | 0.00 | 0.00 | 0.00 | 62 | 1006.0 |
| 20260505054526 | 65 | 136 | 0.0 | 0.0 | 0.00 | 0.00 | 0.00 | 62 | 1005.6 |
| 20260505053023 | 65 | 150 | 0.0 | 0.0 | 0.00 | 0.00 | 0.00 | 62 | 1005.5 |
| 20260505051610 | 66 | 168 | 0.0 | 0.0 | 0.00 | 0.00 | 0.00 | 60 | 1005.7 |
| 20260505041514 | 67 | 218 | 0.0 | 0.0 | 0.00 | 0.00 | 0.00 | 59 | 1006.0 |
| 20260505040014 | 67 | 221 | 0.0 | 0.0 | 0.00 | 0.00 | 0.00 | 59 | 1006.2 |
| 20260505034514 | 67 | 198 | 0.0 | 0.0 | 0.00 | 0.00 | 0.00 | 59 | 1006.1 |
| 20260505033011 | 67 | 210 | 0.0 | 0.0 | 0.00 | 0.00 | 0.00 | 59 | 1006.0 |
| 20260505031508 | 68 | 236 | 0.0 | 0.0 | 0.00 | 0.00 | 0.00 | 59 | 1006.0 |
| 20260505030007 | 67 | 248 | 0.0 | 0.0 | 0.00 | 0.00 | 0.00 | 59 | 1005.8 |
| 20260505024510 | 67 | 248 | 0.0 | 0.0 | 0.00 | 0.00 | 0.00 | 59 | 1005.6 |
| 20260505023005 | 68 | 150 | 0.0 | 0.0 | 0.00 | 0.00 | 0.00 | 59 | 1005.5 |
| 20260505021502 | 68 | 172 | 0.0 | 0.0 | 0.00 | 0.00 | 0.00 | 58 | 1005.3 |
| 20260505020106 | 68 | 226 | 0.0 | 0.0 | 0.00 | 0.00 | 0.00 | 58 | 1005.0 |
| 20260505014559 | 69 | 160 | 0.0 | 0.0 | 0.00 | 0.00 | 0.00 | 57 | 1005.0 |
| 20260505013106 | 69 | 193 | 0.0 | 0.0 | 0.00 | 0.00 | 0.00 | 56 | 1004.8 |
| 20260505011554 | 69 | 221 | 0.0 | 0.0 | 0.00 | 0.00 | 0.00 | 55 | 1004.8 |
| 20260505010109 | 70 | 232 | 0.0 | 0.0 | 0.00 | 0.00 | 0.00 | 54 | 1004.7 |